Location: Finkenwalde
(53.3770°N, 14.6418°E)
Time: 08:47:09
(UTC+00:00)

YAOGAN 1 - Pass Details

Date: 05 February 2023
Orbit: 616 x 618 km, 97.8° (Epoch: 19 March)

Event Time Altitude Azimuth Distance (km) Brightness Sun altitude
Rises 17:04:16 0° 148° (SSE) 2,886 5.8 -11.0°
Reaches altitude 10° 17:06:29 10° 142° (SE) 1,984 4.9 -11.3°
Maximum altitude 17:10:39 49° 68° (ENE) 809 2.7 -12.0°
Drops below altitude 10° 17:14:50 10° 355° (N) 1,999 5.1 -12.6°
Sets 17:17:04 0° 350° (N) 2,909 6.0 -12.9°
